| time (UTC) | temp F | wind direction | speed knots | gust knots | rain 1hr in | rain 24hr in | rain mn in | humidity % | barometer mb |
| 20260906034843 | 54 | 0.9 | 0.0 | 0.00 | 0.00 | 0.00 | 100 | 1021.0 | |
| 20260906033444 | 54 | 0.9 | 0.0 | 0.00 | 0.00 | 0.00 | 100 | 1021.0 | |
| 20260906031943 | 55 | 250 | 2.6 | 0.0 | 0.00 | 0.00 | 0.00 | 94 | 1020.0 |
| 20260906030443 | 55 | 250 | 2.6 | 0.0 | 0.00 | 0.00 | 0.00 | 94 | 1020.0 |
| 20260906024853 | 54 | 230 | 5.2 | 0.0 | 0.00 | 0.00 | 0.00 | 94 | 1020.0 |
| 20260906023326 | 54 | 230 | 5.2 | 0.0 | 0.00 | 0.00 | 0.00 | 94 | 1020.0 |
| 20260906021833 | 57 | 220 | 2.6 | 0.0 | 0.00 | 0.00 | 0.00 | 94 | 1020.0 |
| 20260906020328 | 57 | 220 | 2.6 | 0.0 | 0.00 | 0.00 | 0.00 | 94 | 1020.0 |
| 20260906014828 | 59 | 250 | 4.3 | 0.0 | 0.00 | 0.00 | 0.00 | 94 | 1020.0 |
| 20260906013444 | 59 | 250 | 4.3 | 0.0 | 0.00 | 0.00 | 0.00 | 94 | 1020.0 |
| 20260906011826 | 59 | 220 | 1.7 | 0.0 | 0.00 | 0.00 | 0.00 | 94 | 1020.0 |
| 20260906010326 | 59 | 220 | 1.7 | 0.0 | 0.00 | 0.00 | 0.00 | 94 | 1020.0 |
| 20260906004944 | 59 | 210 | 4.3 | 0.0 | 0.00 | 0.00 | 0.00 | 94 | 1020.0 |
| 20260906003454 | 59 | 210 | 4.3 | 0.0 | 0.00 | 0.00 | 0.00 | 94 | 1020.0 |
| 20260906001944 | 61 | 200 | 4.3 | 0.0 | 0.00 | 0.00 | 0.00 | 94 | 1019.0 |
| 20260906000433 | 61 | 200 | 4.3 | 0.0 | 0.00 | 0.00 | 0.00 | 94 | 1019.0 |
| 20260905234836 | 61 | 210 | 2.6 | 0.0 | 0.00 | 0.00 | 0.00 | 94 | 1019.0 |
| 20260905233326 | 61 | 210 | 2.6 | 0.0 | 0.00 | 0.00 | 0.00 | 94 | 1019.0 |
| 20260905231944 | 61 | 170 | 1.7 | 0.0 | 0.00 | 0.00 | 0.00 | 94 | 1019.0 |
| 20260905230358 | 61 | 170 | 1.7 | 0.0 | 0.00 | 0.00 | 0.00 | 94 | 1019.0 |
| 20260905224944 | 63 | 260 | 4.3 | 0.0 | 0.00 | 0.00 | 0.00 | 94 | 1019.0 |
| 20260905223340 | 63 | 260 | 4.3 | 0.0 | 0.00 | 0.00 | 0.00 | 94 | 1019.0 |
| 20260905221929 | 64 | 230 | 6.1 | 0.0 | 0.00 | 0.00 | 0.00 | 94 | 1019.0 |
| 20260905220444 | 64 | 230 | 6.1 | 0.0 | 0.00 | 0.00 | 0.00 | 94 | 1019.0 |
| 20260905214943 | 64 | 230 | 4.3 | 0.0 | 0.00 | 0.00 | 0.00 | 94 | 1019.0 |
| 20260905213326 | 64 | 230 | 4.3 | 0.0 | 0.00 | 0.00 | 0.00 | 94 | 1019.0 |
| 20260905211826 | 64 | 1.7 | 0.0 | 0.00 | 0.00 | 0.00 | 94 | 1019.0 | |
| 20260905210326 | 64 | 1.7 | 0.0 | 0.00 | 0.00 | 0.00 | 94 | 1019.0 | |
| 20260905204837 | 64 | 280 | 4.3 | 0.0 | 0.00 | 0.00 | 0.00 | 94 | 1018.0 |
| 20260905203326 | 64 | 280 | 4.3 | 0.0 | 0.00 | 0.00 | 0.00 | 94 | 1018.0 |
| 20260905201826 | 66 | 190 | 2.6 | 0.0 | 0.00 | 0.00 | 0.00 | 88 | 1018.0 |
| 20260905200444 | 66 | 190 | 2.6 | 0.0 | 0.00 | 0.00 | 0.00 | 88 | 1018.0 |
| 20260905194935 | 66 | 240 | 5.2 | 0.0 | 0.00 | 0.00 | 0.00 | 88 | 1018.0 |
| 20260905193326 | 66 | 240 | 5.2 | 0.0 | 0.00 | 0.00 | 0.00 | 88 | 1018.0 |
| 20260905191855 | 66 | 150 | 4.3 | 0.0 | 0.00 | 0.00 | 0.00 | 83 | 1018.0 |
| 20260905190327 | 66 | 150 | 4.3 | 0.0 | 0.00 | 0.00 | 0.00 | 83 | 1018.0 |
| 20260905183331 | 68 | 350 | 8.7 | 0.0 | 0.00 | 0.00 | 0.00 | 83 | 1017.0 |
| 20260905174823 | 75 | 340 | 4.3 | 0.0 | 0.00 | 0.00 | 0.00 | 61 | 1016.0 |
| 20260905173326 | 75 | 340 | 4.3 | 0.0 | 0.00 | 0.00 | 0.00 | 61 | 1016.0 |
| 20260905171834 | 77 | 340 | 5.2 | 0.0 | 0.00 | 0.00 | 0.00 | 57 | 1016.0 |
| 20260905170326 | 77 | 340 | 5.2 | 0.0 | 0.00 | 0.00 | 0.00 | 57 | 1016.0 |
| 20260905164826 | 77 | 350 | 6.1 | 0.0 | 0.00 | 0.00 | 0.00 | 57 | 1016.0 |
| 20260905163327 | 77 | 350 | 6.1 | 0.0 | 0.00 | 0.00 | 0.00 | 57 | 1016.0 |
| 20260905160327 | 79 | 330 | 14.8 | 0.0 | 0.00 | 0.00 | 0.00 | 58 | 1016.0 |
| 20260905153326 | 82 | 320 | 18.2 | 0.0 | 0.00 | 0.00 | 0.00 | 48 | 1015.0 |
| 20260905151827 | 84 | 320 | 18.2 | 0.0 | 0.00 | 0.00 | 0.00 | 48 | 1014.0 |
| 20260905150327 | 84 | 320 | 18.2 | 0.0 | 0.00 | 0.00 | 0.00 | 48 | 1014.0 |
| 20260905143326 | 88 | 320 | 13.9 | 0.0 | 0.00 | 0.00 | 0.00 | 43 | 1014.0 |
| 20260905141824 | 91 | 310 | 12.2 | 0.0 | 0.00 | 0.00 | 0.00 | 41 | 1013.0 |
| 20260905140323 | 91 | 310 | 12.2 | 0.0 | 0.00 | 0.00 | 0.00 | 41 | 1013.0 |
| 20260905134941 | 90 | 220 | 5.2 | 0.0 | 0.00 | 0.00 | 0.00 | 43 | 1013.0 |
| 20260905133326 | 90 | 220 | 5.2 | 0.0 | 0.00 | 0.00 | 0.00 | 43 | 1013.0 |
| 20260905131829 | 90 | 150 | 4.3 | 0.0 | 0.00 | 0.00 | 0.00 | 41 | 1014.0 |
| 20260905130348 | 90 | 150 | 4.3 | 0.0 | 0.00 | 0.00 | 0.00 | 41 | 1014.0 |
| 20260905124824 | 90 | 260 | 7.8 | 0.0 | 0.00 | 0.00 | 0.00 | 41 | 1014.0 |
| 20260905123327 | 90 | 260 | 7.8 | 0.0 | 0.00 | 0.00 | 0.00 | 41 | 1014.0 |
| 20260905121854 | 91 | 240 | 8.7 | 0.0 | 0.00 | 0.00 | 0.00 | 41 | 1014.0 |
| 20260905120327 | 91 | 240 | 8.7 | 0.0 | 0.00 | 0.00 | 0.00 | 41 | 1014.0 |
| 20260905114827 | 91 | 210 | 6.1 | 0.0 | 0.00 | 0.00 | 0.00 | 41 | 1015.0 |
| 20260905113326 | 91 | 210 | 6.1 | 0.0 | 0.00 | 0.00 | 0.00 | 41 | 1015.0 |
| 20260905111845 | 90 | 220 | 6.1 | 0.0 | 0.00 | 0.00 | 0.00 | 43 | 1015.0 |
| 20260905110326 | 90 | 220 | 6.1 | 0.0 | 0.00 | 0.00 | 0.00 | 43 | 1015.0 |
| 20260905104826 | 90 | 230 | 7.8 | 0.0 | 0.00 | 0.00 | 0.00 | 43 | 1015.0 |
| 20260905103326 | 90 | 230 | 7.8 | 0.0 | 0.00 | 0.00 | 0.00 | 43 | 1015.0 |
| 20260905101826 | 86 | 220 | 7.0 | 0.0 | 0.00 | 0.00 | 0.00 | 46 | 1015.0 |
| 20260905100327 | 86 | 220 | 7.0 | 0.0 | 0.00 | 0.00 | 0.00 | 46 | 1015.0 |
| 20260905094944 | 86 | 210 | 7.8 | 0.0 | 0.00 | 0.00 | 0.00 | 46 | 1015.0 |
| 20260905093326 | 86 | 210 | 7.8 | 0.0 | 0.00 | 0.00 | 0.00 | 46 | 1015.0 |
| 20260905091826 | 84 | 200 | 7.0 | 0.0 | 0.00 | 0.00 | 0.00 | 48 | 1016.0 |
| 20260905090326 | 84 | 200 | 7.0 | 0.0 | 0.00 | 0.00 | 0.00 | 48 | 1016.0 |
| 20260905084826 | 81 | 210 | 4.3 | 0.0 | 0.00 | 0.00 | 0.00 | 54 | 1016.0 |
| 20260905083326 | 81 | 210 | 4.3 | 0.0 | 0.00 | 0.00 | 0.00 | 54 | 1016.0 |
| 20260905081826 | 77 | 4.3 | 0.0 | 0.00 | 0.00 | 0.00 | 57 | 1016.0 | |
| 20260905080327 | 77 | 4.3 | 0.0 | 0.00 | 0.00 | 0.00 | 57 | 1016.0 | |
| 20260905074826 | 73 | 70 | 5.2 | 0.0 | 0.00 | 0.00 | 0.00 | 65 | 1016.0 |
| 20260905073335 | 73 | 70 | 5.2 | 0.0 | 0.00 | 0.00 | 0.00 | 65 | 1016.0 |
| 20260905071827 | 70 | 80 | 6.1 | 0.0 | 0.00 | 0.00 | 0.00 | 73 | 1017.0 |
| 20260905070326 | 70 | 80 | 6.1 | 0.0 | 0.00 | 0.00 | 0.00 | 73 | 1017.0 |
| 20260905064827 | 64 | 60 | 6.1 | 0.0 | 0.00 | 0.00 | 0.00 | 83 | 1017.0 |
| 20260905063327 | 64 | 60 | 6.1 | 0.0 | 0.00 | 0.00 | 0.00 | 83 | 1017.0 |
| 20260905061827 | 63 | 80 | 7.0 | 0.0 | 0.00 | 0.00 | 0.00 | 83 | 1017.0 |
| 20260905060327 | 63 | 80 | 7.0 | 0.0 | 0.00 | 0.00 | 0.00 | 83 | 1017.0 |
| 20260905054827 | 59 | 70 | 6.1 | 0.0 | 0.00 | 0.00 | 0.00 | 88 | 1017.0 |
| 20260905053327 | 59 | 70 | 6.1 | 0.0 | 0.00 | 0.00 | 0.00 | 88 | 1017.0 |
| 20260905051826 | 57 | 90 | 6.1 | 0.0 | 0.00 | 0.00 | 0.00 | 94 | 1017.0 |
| 20260905050327 | 57 | 90 | 6.1 | 0.0 | 0.00 | 0.00 | 0.00 | 94 | 1017.0 |
| 20260905044827 | 55 | 90 | 6.1 | 0.0 | 0.00 | 0.00 | 0.00 | 94 | 1017.0 |
| 20260905043326 | 55 | 90 | 6.1 | 0.0 | 0.00 | 0.00 | 0.00 | 94 | 1017.0 |
| 20260905041826 | 54 | 90 | 5.2 | 0.0 | 0.00 | 0.00 | 0.00 | 100 | 1017.0 |
| 20260905040326 | 54 | 90 | 5.2 | 0.0 | 0.00 | 0.00 | 0.00 | 100 | 1017.0 |